This is the latest recevied weather packets stored in our database for station/object IK2ILW-4. If no packets are shown the sender has not sent any weather packets the latest 10 day(s).
| Time | Temp. | Humidity | Pressure | Rain* | Wind** | Luminosity | Snow |
|---|---|---|---|---|---|---|---|
| 1777922255 | 10.56° C | 49% | 1017.8 hPa | 0 mm | - | 0 W/m² | - |
| 1777921970 | 10.56° C | 48% | 1017.9 hPa | 0 mm | - | 0 W/m² | - |
| 1777921665 | 10.56° C | 49% | 1017.9 hPa | 0 mm | - | 0 W/m² | - |
| 1777921438 | 10.56° C | 50% | 1017.9 hPa | 0 mm | - | 0 W/m² | - |
| 1777921061 | 10.56° C | 50% | 1017.9 hPa | 0 mm | - | 0 W/m² | - |
| 1777920757 | 10.56° C | 50% | 1017.9 hPa | 0 mm | - | 0 W/m² | - |
| 1777920473 | 10.56° C | 50% | 1017.9 hPa | 0 mm | - | 0 W/m² | - |
| 1777920169 | 10.56° C | 50% | 1017.8 hPa | 0 mm | - | 0 W/m² | - |
| 1777919864 | 10.56° C | 52% | 1017.8 hPa | 0 mm | - | 0 W/m² | - |
| 1777919559 | 10.56° C | 52% | 1017.8 hPa | 0 mm | - | 0 W/m² | - |
| 1777919259 | 11.11° C | 52% | 1017.8 hPa | 0 mm | - | 0 W/m² | - |
| 1777918955 | 11.11° C | 51% | 1017.8 hPa | 0 mm | - | 0 W/m² | - |
| 1777918655 | 11.11° C | 52% | 1017.8 hPa | 0 mm | - | 5 W/m² | - |
| 1777918355 | 11.11° C | 51% | 1017.8 hPa | 0 mm | - | 7 W/m² | - |
| 1777918071 | 11.67° C | 54% | 1017.8 hPa | 0 mm | - | 11 W/m² | - |
| 1777917766 | 11.67° C | 52% | 1017.8 hPa | 0 mm | - | 16 W/m² | - |
| 1777917465 | 11.67° C | 57% | 1018.7 hPa | 0 mm | - | 21 W/m² | - |
| 1777917161 | 12.22° C | 59% | 1018.7 hPa | 0 mm | - | 28 W/m² | - |
| 1777916861 | 12.22° C | 55% | 1018.7 hPa | 0 mm | - | 35 W/m² | - |
| 1777916561 | 12.78° C | 49% | 1018.7 hPa | 0 mm | - | 63 W/m² | - |
| 1777916257 | 12.78° C | 49% | 1018.7 hPa | 0 mm | - | 69 W/m² | - |
| 1777915973 | 12.78° C | 49% | 1018.7 hPa | 0 mm | - | 93 W/m² | - |
| 1777915668 | 12.78° C | 53% | 1017.8 hPa | 0 mm | - | 100 W/m² | - |
| 1777915369 | 12.78° C | 53% | 1017.8 hPa | 0 mm | - | 146 W/m² | - |
| 1777915065 | 12.78° C | 54% | 1017.8 hPa | 0 mm | - | 111 W/m² | - |
* Rain since midnight (hover to see other rain measurements)
** Current wind speed in m/s (hover to see current wind gust speed)